Cheatham Observed Data For Previous 48 Hours

Caption
Day and Hour Reservoir Elevation (behind dam)* Tailwater Elevation (below dam)* Average Hourly Discharge*
1/16/2019 1 AM CST 385.69 367.98 51,400
1/16/2019 2 AM CST 385.71 367.97 51,000
1/16/2019 3 AM CST 385.70 367.98 51,400
1/16/2019 4 AM CST 385.69 367.98 50,000
1/16/2019 5 AM CST 385.67 367.97 50,000
1/16/2019 6 AM CST 385.65 367.96 49,700
1/16/2019 7 AM CST 385.63 367.93 50,000
1/16/2019 8 AM CST 385.62 368.02 50,000
1/16/2019 9 AM CST 385.62 367.92 52,000
1/16/2019 10 AM CST 385.63 367.93 52,000
1/16/2019 11 AM CST 385.63 367.93 52,000
1/16/2019 12 PM CST 385.63 367.93 52,000
1/16/2019 1 PM CST 385.64 367.94 50,000
1/16/2019 2 PM CST 385.69 367.99 50,000
1/16/2019 3 PM CST 385.69 367.99 50,000
1/16/2019 4 PM CST 385.68 367.98 50,500
1/16/2019 5 PM CST 385.68 367.98 51,100
1/16/2019 6 PM CST 385.67 367.97 51,100
1/16/2019 7 PM CST 385.68 368.03 51,100
1/16/2019 8 PM CST 385.69 368.05 51,100
1/16/2019 9 PM CST 385.70 368.06 51,100
1/16/2019 10 PM CST 385.68 368.06 51,100
1/16/2019 11 PM CST 385.66 368.06 51,100
1/17/2019 12 AM CST 385.70 368.05 51,100
1/17/2019 1 AM CST 385.73 368.04 50,700
1/17/2019 2 AM CST 385.76 368.03 50,700
1/17/2019 3 AM CST 385.77 368.02 50,700
1/17/2019 4 AM CST 385.75 368.03 50,700
1/17/2019 5 AM CST 385.73 368.02 50,700
1/17/2019 6 AM CST 385.72 368.00 50,700
1/17/2019 7 AM CST 385.73 368.02 51,100
1/17/2019 8 AM CST 385.73 368.04 51,100
1/17/2019 9 AM CST 385.73 368.05 51,100
1/17/2019 10 AM CST 385.75 368.04 51,100
1/17/2019 11 AM CST 385.73 368.04 51,100
1/17/2019 12 PM CST 385.78 368.07 51,100
1/17/2019 1 PM CST 385.80 368.07 52,100
1/17/2019 2 PM CST 385.80 368.07 52,100
1/17/2019 3 PM CST 385.82 368.07 52,100
1/17/2019 4 PM CST 385.75 368.16 53,400
1/17/2019 5 PM CST 385.74 368.21 53,400
1/17/2019 6 PM CST 385.72 368.23 53,400
1/17/2019 7 PM CST 385.70 368.25 53,400
1/17/2019 8 PM CST 385.70 368.28 53,400
1/17/2019 9 PM CST 385.69 368.30 53,400
1/17/2019 10 PM CST 385.69 368.32 53,400
1/17/2019 11 PM CST 385.69 368.32 53,400

Elevations are in feet above sea level. Discharges are in cubic feet per second and are reported at the end of the hour.